Orbital Elements at Epoch 2459000.5 (2020-May-31.0) TDB
Reference: JPL 20 (heliocentric ecliptic J2000)
Element | Value | Uncertainty (1-sigma) | Units |
e | .0590878656902717 | 3.0652e-08 | |
a | 2.448315011651493 | 1.0534e-08 | au |
q | 2.303649303075553 | 7.453e-08 | au |
i | 5.380843146765726 | 4.1468e-06 | deg |
node | 267.7358155035752 | 4.3332e-05 | deg |
peri | 140.6979691558081 | 6.3865e-05 | deg |
M | 106.699132197321 | 4.649e-05 | deg |
tp | 2458585.777348506141 (2019-Apr-12.27734851) | 0.00017996 | TDB |
period | 1399.263062999288 3.83 | 9.0306e-06 2.472e-08 | d yr |
n | .2572782842050788 | 1.6604e-09 | deg/d |
Q | 2.592980720227432 | 1.1156e-08 | au |
|
| | Orbit Determination Parameters
Additional Information
|